Waarnemingen

Advertentie
Mijn weer
Boulogne, Frankrijk (7002): temperatuur & dauwpunt: 23.03.2017 01:00:00 - 29.03.2017 01:00:00 (CEST)Boulogne, Frankrijk (7002): windsnelheid & windstoten: 23.03.2017 01:00:00 - 29.03.2017 01:00:00 (CEST)Boulogne, Frankrijk (7002): windrichting: 23.03.2017 01:00:00 - 29.03.2017 01:00:00 (CEST)Boulogne, Frankrijk (7002): luchtdruk: 23.03.2017 01:00:00 - 29.03.2017 01:00:00 (CEST)Boulogne, Frankrijk (7002): zicht: 23.03.2017 01:00:00 - 29.03.2017 01:00:00 (CEST)Boulogne, Frankrijk (7002): neerslag: 23.03.2017 01:00:00 - 29.03.2017 01:00:00 (CEST)
Datum & Tijd tt [°C] td [°C] ff [km/u] ff [kn] fx [km/u] fx [kn] dd ppp [hPa] vv [km] rr [mm]
29.03.2017 01:00:00 11,6 7,7 26 14 42 23 ZZW 1023,7 - 0,0
29.03.2017 00:00:00 10,7 7,6 19 10 33 18 ZZW 1023,8 - 0,0
28.03.2017 23:00:00 10,7 7,9 16 9 33 18 ZZW 1023,7 - 0,0
28.03.2017 22:00:00 11,5 8,4 17 9 35 19 ZW 1023,5 - 0,0
28.03.2017 21:00:00 10,9 8,3 19 11 32 17 ZW 1023,2 - 0,0
28.03.2017 20:00:00 11,2 8,2 20 11 34 18 ZW 1022,8 8 0,0
28.03.2017 19:00:00 11,6 8,4 24 13 39 21 ZW 1022,7 - 0,0
28.03.2017 18:00:00 10,9 8,6 27 15 43 23 ZW 1022,8 - 0,0
28.03.2017 17:00:00 11,3 8,9 28 15 45 24 ZW 1022,7 - 0,0
28.03.2017 16:00:00 10,1 8,7 29 16 46 25 ZW 1022,8 - 0,0
28.03.2017 15:00:00 10,5 8,4 32 17 48 26 ZW 1022,5 - 0,0
28.03.2017 14:00:00 11,2 8,1 23 13 45 24 ZW 1022,5 6 0,0
28.03.2017 13:00:00 11,6 7,9 25 13 43 23 ZW 1022,3 - 0,0
28.03.2017 12:00:00 12,0 7,1 26 14 44 24 ZW 1021,8 - 0,0
28.03.2017 11:00:00 12,1 6,4 20 11 37 20 ZW 1020,9 - 0,0
28.03.2017 10:00:00 12,2 5,8 11 6 24 13 Z 1020,7 - 0,0
28.03.2017 09:00:00 11,2 4,9 13 7 18 10 ZZO 1020,1 - 0,0
28.03.2017 08:00:00 10,7 4,2 10 5 26 14 ZZO 1019,9 6 0,0
28.03.2017 07:00:00 10,7 3,7 13 7 19 11 ZO 1019,7 - 0,0
28.03.2017 06:00:00 10,5 3,7 13 7 24 13 ZO 1019,6 - 0,0
28.03.2017 05:00:00 10,8 3,6 15 8 23 12 ZO 1019,6 - 0,0
28.03.2017 04:00:00 10,3 3,6 13 7 19 11 ZO 1019,7 - 0,0
28.03.2017 03:00:00 9,9 3,8 11 6 18 10 ZO 1020,0 - 0,0
28.03.2017 02:00:00 11,3 3,8 12 7 19 10 ZO 1020,0 6 0,0
28.03.2017 01:00:00 12,8 3,7 9 5 16 9 OZO 1020,0 - 0,0
28.03.2017 00:00:00 12,6 4,5 8 4 14 7 O 1020,1 - 0,0
27.03.2017 23:00:00 12,2 5,4 10 6 18 10 O 1020,3 - 0,0
27.03.2017 22:00:00 12,4 5,5 15 8 22 12 ONO 1020,3 - 0,0
27.03.2017 21:00:00 12,3 5,5 14 8 26 14 ONO 1020,0 - 0,0
27.03.2017 20:00:00 13,5 5,9 13 7 23 12 ONO 1019,8 - 0,0
27.03.2017 19:00:00 14,9 6,7 16 9 29 16 ONO 1019,0 - 0,0
27.03.2017 18:00:00 17,2 5,8 9 5 18 10 O 1019,2 - 0,0
27.03.2017 17:00:00 16,0 5,6 6 3 22 12 NW 1019,5 - 0,0
27.03.2017 16:00:00 17,5 3,4 10 5 24 13 ZZO 1019,8 - 0,0
27.03.2017 15:00:00 16,9 2,1 13 7 29 16 ZO 1020,5 - 0,0
27.03.2017 14:00:00 16,4 4,7 11 6 21 11 ONO 1020,9 8 0,0
27.03.2017 13:00:00 14,7 5,2 10 5 19 10 ONO 1021,5 - 0,0
27.03.2017 12:00:00 13,6 5,2 7 4 23 12 ONO 1021,8 - 0,0
27.03.2017 11:00:00 11,5 4,7 11 6 23 13 ONO 1022,3 8 0,0
27.03.2017 10:00:00 10,4 3,7 13 7 24 13 ONO 1021,9 - 0,0
27.03.2017 09:00:00 7,7 3,5 17 9 27 15 O 1021,7 - 0,0
27.03.2017 08:00:00 7,1 2,8 14 8 22 12 ONO 1021,6 - 0,0
27.03.2017 07:00:00 6,4 3,0 13 7 22 12 NO 1021,5 - 0,0
27.03.2017 06:00:00 8,1 2,7 5 3 24 13 NNO 1021,8 - 0,0
27.03.2017 05:00:00 8,6 3,0 17 9 32 18 O 1021,6 - 0,0
27.03.2017 04:00:00 9,0 3,2 17 9 31 17 O 1021,6 - 0,0
27.03.2017 03:00:00 9,3 3,3 16 9 26 14 O 1022,0 - 0,0
27.03.2017 02:00:00 9,7 3,4 14 8 36 19 O 1022,3 9 0,0
27.03.2017 01:00:00 9,9 3,6 18 10 37 20 O 1022,7 - 0,0
27.03.2017 00:00:00 10,1 4,0 20 11 42 23 O 1022,9 - 0,0
26.03.2017 23:00:00 9,9 4,7 26 14 40 21 O 1022,8 10 0,0
26.03.2017 22:00:00 10,1 5,1 27 14 46 25 ONO 1022,5 - 0,0
26.03.2017 21:00:00 10,2 5,0 27 14 45 24 ONO 1022,0 - 0,0
26.03.2017 20:00:00 10,9 5,6 15 8 31 17 NO 1022,0 15 0,0
26.03.2017 19:00:00 12,4 6,2 15 8 36 19 NO 1021,8 - 0,0
26.03.2017 18:00:00 13,1 6,4 14 8 35 19 NO 1021,5 - 0,0
26.03.2017 17:00:00 13,3 6,4 18 10 37 20 NO 1021,7 - 0,0
26.03.2017 16:00:00 15,8 4,8 16 9 32 17 ONO 1022,1 - 0,0
26.03.2017 15:00:00 15,0 4,9 16 8 36 19 ONO 1022,2 - 0,0
26.03.2017 14:00:00 14,2 3,9 16 9 34 19 ONO 1022,5 15 0,0
26.03.2017 13:00:00 12,9 3,0 18 10 36 20 ONO 1022,7 - 0,0
26.03.2017 12:00:00 11,5 3,0 17 9 38 20 ONO 1022,9 - 0,0
26.03.2017 11:00:00 10,7 1,2 22 12 47 25 O 1022,6 18 0,0
26.03.2017 10:00:00 8,0 1,2 32 17 53 29 O 1022,7 - 0,0
26.03.2017 09:00:00 5,8 1,7 36 19 52 28 O 1022,3 - 0,0
26.03.2017 08:00:00 5,7 1,2 37 20 61 33 ONO 1022,3 - 0,0
26.03.2017 07:00:00 6,0 0,5 40 22 62 33 ONO 1022,2 - 0,0
26.03.2017 06:00:00 6,8 -0,2 37 20 55 30 ONO 1022,1 - 0,0
26.03.2017 05:00:00 7,1 -0,6 27 14 57 31 O 1022,1 10 0,0
26.03.2017 04:00:00 7,1 -0,4 44 24 65 35 ONO 1022,1 - 0,0
26.03.2017 03:00:00 7,7 -0,1 38 21 61 33 ONO 1022,5 - 0,0
26.03.2017 02:00:00 8,1 1,2 32 17 53 29 ONO 1023,0 - 0,0
26.03.2017 01:00:00 8,4 2,4 29 16 57 31 ONO 1023,0 - 0,0
26.03.2017 00:00:00 8,4 2,6 32 18 57 31 ONO 1022,7 - 0,0
25.03.2017 23:00:00 8,7 2,7 34 18 60 32 ONO 1023,0 10 0,0
25.03.2017 22:00:00 8,8 2,4 29 16 58 32 ONO 1023,1 - 0,0
25.03.2017 21:00:00 9,1 1,3 27 15 53 28 ONO 1023,0 - 0,0
25.03.2017 20:00:00 9,4 1,1 24 13 54 29 ONO 1022,7 - 0,0
25.03.2017 19:00:00 9,8 1,7 23 12 59 32 NO 1023,1 - 0,0
25.03.2017 18:00:00 11,0 3,0 22 12 59 32 NO 1023,7 - 0,0
25.03.2017 17:00:00 11,8 3,3 22 12 55 30 NO 1024,1 10 0,0
25.03.2017 16:00:00 11,7 2,9 27 15 58 32 NO 1024,7 - 0,0
25.03.2017 15:00:00 12,6 2,4 30 16 67 36 ONO 1025,5 - 0,0
25.03.2017 14:00:00 12,3 3,0 26 14 57 31 NO 1026,1 12 0,0
25.03.2017 13:00:00 11,3 3,6 23 12 55 30 NO 1026,8 - 0,0
25.03.2017 12:00:00 11,4 3,2 25 13 64 34 ONO 1027,3 - 0,0
25.03.2017 11:00:00 9,7 2,5 33 18 63 34 ONO 1027,8 12 0,0
25.03.2017 10:00:00 7,8 2,0 34 18 61 33 ONO 1028,0 - 0,0
25.03.2017 09:00:00 6,5 1,8 36 20 59 32 ONO 1028,0 - 0,0
25.03.2017 08:00:00 5,9 1,6 26 14 46 25 ONO 1028,3 7 0,0
25.03.2017 07:00:00 6,2 1,7 19 11 48 26 ONO 1028,8 - 0,0
25.03.2017 06:00:00 6,3 1,8 30 16 55 30 ONO 1028,6 - 0,0
25.03.2017 05:00:00 6,9 2,0 26 14 50 27 ONO 1028,7 8 0,0
25.03.2017 04:00:00 7,5 2,4 25 14 41 22 ONO 1029,0 - 0,0
25.03.2017 03:00:00 8,1 2,7 27 15 53 29 ONO 1029,6 - 0,0
25.03.2017 02:00:00 8,4 4,0 30 16 49 27 ONO 1029,3 - 0,0
25.03.2017 01:00:00 8,6 4,6 26 14 44 24 ONO 1029,3 - 0,0
25.03.2017 00:00:00 8,2 5,5 26 14 48 26 ONO 1029,5 - 0,0
24.03.2017 23:00:00 8,4 5,3 15 8 46 25 ONO 1029,4 - 0,0
24.03.2017 22:00:00 8,5 5,2 26 14 49 26 ONO 1028,6 - 0,0
24.03.2017 21:00:00 9,0 4,8 31 17 54 29 ONO 1027,8 - 0,0
24.03.2017 20:00:00 8,9 5,3 26 14 58 31 NO 1027,5 6 0,0
24.03.2017 19:00:00 9,9 5,5 24 13 49 26 NO 1027,3 - 0,0
24.03.2017 18:00:00 10,5 5,9 21 11 46 25 NO 1027,1 - 0,0
24.03.2017 17:00:00 11,3 6,2 18 10 43 23 NO 1027,0 6 0,0
24.03.2017 16:00:00 12,1 6,8 19 10 40 22 NO 1026,5 - 0,0
24.03.2017 15:00:00 13,8 5,7 21 11 37 20 ONO 1026,7 - 0,0
24.03.2017 14:00:00 12,3 6,8 18 10 36 19 ONO 1026,8 - 0,0
24.03.2017 13:00:00 10,4 6,2 19 10 40 22 ONO 1026,9 - 0,0
24.03.2017 12:00:00 8,7 5,3 26 14 44 24 ONO 1026,3 - 0,0
24.03.2017 11:00:00 7,4 5,0 25 13 42 23 ONO 1025,6 - 0,0
24.03.2017 10:00:00 6,7 4,7 22 12 48 26 ONO 1024,8 - 0,0
24.03.2017 09:00:00 6,4 4,4 32 17 47 26 ONO 1023,9 - 0,0
24.03.2017 08:00:00 6,8 4,3 30 16 44 24 ONO 1022,4 - 0,0
24.03.2017 07:00:00 7,1 4,2 27 15 45 24 ONO 1021,7 - 0,0
24.03.2017 06:00:00 7,2 4,2 25 14 45 25 O 1021,3 - 0,0
24.03.2017 05:00:00 7,8 4,2 30 16 50 27 ONO 1020,7 - 0,0
24.03.2017 04:00:00 8,4 4,0 32 17 50 27 ONO 1020,6 - 0,0
24.03.2017 03:00:00 9,1 4,1 31 17 51 27 ONO 1020,3 - 0,0
24.03.2017 02:00:00 9,3 4,5 32 17 53 28 ONO 1019,9 8 0,0
24.03.2017 01:00:00 9,6 4,6 32 17 54 29 ONO 1019,1 - 0,0
24.03.2017 00:00:00 10,0 4,8 29 16 52 28 ONO 1018,4 - 0,0
23.03.2017 23:00:00 10,0 5,0 29 16 50 27 ONO 1017,6 - 0,0
23.03.2017 22:00:00 10,0 5,4 27 15 48 26 ONO 1016,3 - 0,0
23.03.2017 21:00:00 9,9 5,5 29 16 48 26 ONO 1015,6 - 0,0
23.03.2017 20:00:00 10,1 5,5 17 9 41 22 NO 1015,2 - 0,0
23.03.2017 19:00:00 10,4 5,8 21 12 49 26 NO 1014,0 - 0,0
23.03.2017 18:00:00 11,5 5,8 20 11 43 23 NO 1013,5 - 0,0
23.03.2017 17:00:00 12,3 5,9 20 11 51 27 NO 1013,0 - 0,0
23.03.2017 16:00:00 12,7 4,1 29 16 58 31 ONO 1012,7 - 0,0
23.03.2017 15:00:00 11,0 4,4 32 18 56 30 ONO 1012,7 - 0,0
23.03.2017 14:00:00 10,5 3,3 34 18 63 34 ONO 1012,7 - 0,0
23.03.2017 13:00:00 9,6 3,1 38 20 63 34 ONO 1012,4 - 0,0
23.03.2017 12:00:00 8,9 3,9 36 20 60 32 ONO 1012,4 - 0,0
23.03.2017 11:00:00 8,4 3,6 29 16 50 27 ONO 1012,0 - 0,0
23.03.2017 10:00:00 6,7 2,8 29 16 47 26 ONO 1012,1 - 0,0
23.03.2017 09:00:00 5,9 2,7 26 14 39 21 O 1012,2 - 0,0
23.03.2017 08:00:00 5,7 2,5 26 14 39 21 ONO 1011,1 10 0,0
23.03.2017 07:00:00 6,0 2,6 10 5 26 14 O 1011,0 - 0,0
23.03.2017 06:00:00 6,1 2,9 11 6 24 13 O 1010,8 - 0,0
23.03.2017 05:00:00 7,0 2,7 14 8 31 17 OZO 1010,7 10 0,0
23.03.2017 04:00:00 7,0 3,1 15 8 31 17 OZO 1010,6 - 0,0
23.03.2017 03:00:00 7,1 3,3 13 7 31 17 OZO 1010,9 - 0,0
23.03.2017 02:00:00 7,1 3,7 17 9 28 15 OZO 1010,4 10 0,0
23.03.2017 01:00:00 - - - - - - - - - -

tt = temperatuur
td = dauwpunt
ff = windsnelheid
fx = windstoten
dd = windrichting
ppp = luchtdruk
vv = zicht
rr = neerslag

Weerstations in de omgeving